カタログに戻る

STARLINK-35193

運用中通信VLEO
NORAD 65889·PAYLOAD·🇺🇸 United States

打ち上げ Oct 7, 2025 から Cape Canaveral Space Force Station

Loading…

次のパス (今後24時間)

TLE

最新Source: CelesTrak SupGP

元期: Sep 14, 2026, 22:34 UTC

1 65889C 25224H   26257.94076389  .00004352  00000+0  12851-3 0  2579
2 65889  53.1580 211.4856 0001411 101.7367 158.5623 15.34402704    10

AllMySatでSTARLINK-35193をリアルタイム追跡

Download on the App Store